01:05
Airports
History
Links
Donate
Help keep this website running!
PayPal
Bitcoin
Information on this page is community maintained and may be outdated or inaccurate and is intended for reference only or PC simulator navigating.
Always use approved charts for navigating.
EDGM
Mosbach Lohrbach
Mosbach Lohrbach (EDGM)
Mosbach, Baden-Wurttemberg, Germany (74821)
(U)
Lat/Lng:49° 24' 5.36" N / 9° 7' 17.98" E
49.401489 / 9.121662
Elevation:1083'ft 330mMSL
ID / ICAO:EDGM
Runways:1
Longest:(15-33) 547.2m 1,795ft Asphalt
Distance To
Airport ID:
Nearby VORs <50NM
Nearby NDBs
Nearby WeatherUpdated 05-22-17 20:50 GMT
Nearby weather at EDFM, Mannheim City located 27.8 nautical miles from EDGM
Altimeter: 30.03
Visibility: 6.2 statute miles
Wind: 1 knots (VRB°)
Temp: 17°c 63°f
Humidity: 67.7%

METAR: EDFM 222050Z VRB01KT CAVOK 17/11 Q1017

(Powered by phpweather)
Runway 15 / 33
Dimensions:547.2 x 20.1m 1795' x 66'ft
Surface:Asphalt
Runway 15 [A]Runway 33 [B]
Heading:149°TH 329°TH
Lat:
Lng:
49° 24' 12.86"N
9° 7' 11.06"E
49° 23' 57.86"N
9° 7' 24.91"E
User Notes and Comments
Google Map
Nearby Airports
(U) Michelstadt Odenwald 20.2 NM
EDFO NNW 340°
(C) Mainbullau 20.5 NM
EDFU N
(U) Ingelfingen Buehlhof 24.7 NM
EDGI ESE 103°
(C) Mannheim City 27.8 NM
EDFM (WX) W 280°
(C) Speyer 31.0 NM
EDRY WSW 257°
(C) Coleman AAF 31.6 NM
ETOR (WX) WNW 290°
(U) SCHWABISCH HALL 35.7 NM
EDTY ESE 123°
VFR Chart
Flight Planning at SkyVector.com